Location: Caltech
(34.1382°N, 118.1253°W)
Time: 05:22:55
(UTC-07:00)

Cosmos 1484 Rocket - Visible Passes

Search period start: 23 March 2017 00:00
Search period end: 02 April 2017 00:00
Orbit: 507 x 564 km, 97.3° (Epoch: 21 March)

Date Brightness Start Highest point End Pass type
(mag) Time Alt. Az. Time Alt. Az. Time Alt. Az.
23 Mar 5.5 19:31:18 10° SSW 19:34:22 24° W 19:37:27 10° NW visible
31 Mar 6.2 19:57:00 10° WSW 19:58:16 11° W 19:59:33 10° WNW visible
01 Apr 5.9 19:47:11 10° SW 19:49:22 15° W 19:51:34 10° WNW visible
